STARLINK-35948, 66633

Orbit data source: Space-Track

STARLINK-35948, 66633 is a payload satellite owned by SpaceX/Seattle (US) in LEO that was launched on Sun, 23 Nov 2025 UTC via an FALCON 9 launch vehicle from the Air Force Western Test Range (AFWTR). Payload-class satellites include a variety of spacecraft equipped with specific instruments for various scientific and technological missions. These include communications satellites like Starlink; space stations such as the ISS; scientific satellites like the Hubble; Earth observation satellites from companies like Planet Labs, Umbra, and HawkEye 360; GPS; miniature CubeSats for education and research; and military/defense satellites.

Loading next visibility...
Identifier
66633, 2025-271S
Orbit
LEO
Country
Flag of USUS
Related business
Manufacturer
SpaceX/Seattle
Mission
Operational Commercial Communications
Bus & Motor
STARLINK V2MO, Unknown motor
Mass
575 kg wet, ~530 kg dry
Launch date (UTC)
2025-11-23 (7 months ago)
Launch vehicle
FALCON 9
Launch site
Air Force Western Test Range (AFWTR)
Object type
Payload
Rocket body
Debris
Shape & HBR
Box + 2 Pan, 17.7 m
Radar Cross Section
36.964 m², Large (>1 m²)

Expand to show TLE details & history
Last TLE update: 3 days ago

TLE from 3 days ago
0 STARLINK-35948
1 66633U 25271S   26171.00269430  .00018350  00000-0  55264-3 0  9994
2 66633  53.1579  22.4086 0000996  87.3421 272.7696 15.34414524 33263
Epoch: 2026-06-20T00:03Z
TLE epoch observation values (Epoch: 2026-06-20T00:03:52.787Z)
Latitude
0.00001°
Longitude
113.21509°
Altitude
463.528 km
Speed
7.636 km/s
True Right ascension
01h 29m 38s
True Declination
0° 00' 00"
Sunlit
Object was in daylight at epoch
Visualization orbit readout
Latitude
Unknown
Longitude
Unknown
Altitude
Unknown
Speed
Unknown
Apparent Right ascension
Unknown
Apparent Declination
Unknown
Sunlit
N/A
Visualization observer readout
Local Sidereal Time
08:51:56
Azimuth
Unknown
Elevation
Unknown
Doppler factor
Unknown
Orbital elements
Apogee altitude
463.599 km
Perigee altitude
462.236 km
Semi-major axis
6,841.054 km
Eccentricity
0.0001
Inclination
53.1579°
RAAN
22.4086°
Arg. of periapsis
87.3421°
True anomaly
272.7582°
Mean anomaly
272.7696°
Eccentric anomaly
272.7639°
Mean motion
3.83582 °/min
Orbital period
93.85 mins
BSTAR
0.00055264
Loading maneuver chart data...
Computing Atmospheric mass density...
Loading historical data...
Loading historical data...
Loading historical data...
Loading historical data...
Loading historical data...
Loading historical data...
Loading historical data...

Documentation

Showing up to 5 results
|